Regional Weather Roundup
Issued by NWS

Home | Current Version | Previous Version | Graphics & Text | Print | Product List | Glossary On
Versions: 1 2 3 4 5 6 7 8 9 10 11 12 13 14 15 16 17 18 19 20 21 22 23 24 25 26 27 28 29 30 31 32 33 34 35 36 37 38 39 40 41 42 43 44 45 46 47 48 49 50
000
ASUS43 KOAX 181210
RWRNE

WEATHER ROUNDUP FOR NEBRASKA
NATIONAL WEATHER SERVICE OMAHA NE
600 AM CST THU DEC 18 2014

NOTES: SATELLITE DATA IS BEING USED TO AUGMENT CLOUD COVER ABOVE
       12000 FEET.
       "FAIR" INDICATES FEW OR NO CLOUDS BELOW 12,000 FEET WITH NO
       SIGNIFICANT WEATHER AND/OR OBSTRUCTIONS TO VISIBILITY.

  * THESE STATIONS DO NOT REPORT WEATHER SUCH AS RAIN...SNOW OR FOG.

NEZ001>004-019>022-054>056-181300-
NEBRASKA PANHANDLE

CITY           SKY/WX    TMP DP  RH WIND       PRES   REMARKS
SCOTTSBLUFF    FOG        9   6  88 NW7       30.02S VSB 1/2 WCI  -2
6HR MIN TEMP:   9; 6HR MAX TEMP:  18;

ALLIANCE       MOCLDY     1  -3  83 W5        29.99S WCI  -9
6HR MIN TEMP:   2; 6HR MAX TEMP:  21;

CHADRON        PTCLDY     6   2  83 SW9       30.02S WCI  -8
6HR MIN TEMP:   6; 6HR MAX TEMP:  20;

KIMBALL        PTCLDY    22  18  83 W8        29.96S WCI  13
SIDNEY         PTCLDY     5   2  87 CALM      29.99S
6HR MIN TEMP:   5; 6HR MAX TEMP:  22;

$$

NEZ057>060-069>072-079>082-181300-
SOUTHWEST NEBRASKA

CITY           SKY/WX    TMP DP  RH WIND       PRES   REMARKS
NORTH PLATTE   CLOUDY    24  22  91 SW6       30.08S WCI  17
6HR MIN TEMP:  23; 6HR MAX TEMP:  24;

IMPERIAL       CLOUDY    25  22  88 W7        30.05S WCI  17
6HR MIN TEMP:  25; 6HR MAX TEMP:  26;

LEXINGTON      CLOUDY    25  23  91 SE3       30.11S
MCCOOK         CLOUDY    23  21  92 CALM      30.10R FOG
6HR MIN TEMP:  21; 6HR MAX TEMP:  25; 6HR PCP:  0.05;

OGALLALA       CLOUDY    25  24  96 W7        30.04R WCI  18
$$

NEZ005>010-023>029-035>040-094-181300-
NORTH CENTRAL NEBRASKA

CITY           SKY/WX    TMP DP  RH WIND       PRES   REMARKS
VALENTINE      CLOUDY    25  21  85 S6        30.05F WCI  18
6HR MIN TEMP:  23; 6HR MAX TEMP:  25;

AINSWORTH      CLOUDY    23  22  98 CALM      30.07S
BROKEN BOW     CLOUDY    24  22  91 S5        30.09S FOG     WCI  18
6HR MIN TEMP:  24; 6HR MAX TEMP:  24;

O`NEILL        CLOUDY    22  21  96 CALM      30.14S
ORD            CLOUDY    23  20  88 SE5       30.12S WCI  17
6HR MIN TEMP:  23; 6HR MAX TEMP:  23;

THEDFORD       CLOUDY    25  23  93 SW9       30.05F WCI  16
$$

NEZ041-046>049-061>064-073>077-083>087-181300-
SOUTH CENTRAL NEBRASKA

CITY           SKY/WX    TMP DP  RH WIND       PRES   REMARKS
GRAND ISLAND   LGT SNOW  23  21  92 E5        30.16S FOG     WCI  17
6HR MIN TEMP:  23; 6HR MAX TEMP:  25; 6HR PCP:  0.03;

AURORA         LGT SNOW  24  23  96 E6        30.16S WCI  17
HASTINGS       CLOUDY    24  21  88 SE6       30.14S WCI  17
6HR MIN TEMP:  24; 6HR MAX TEMP:  25; 6HR PCP: TRACE;

HEBRON         LGT SNOW  26  24  92 CALM      30.18R
HOLDREGE       CLOUDY    24  22  93 CALM      30.12R
KEARNEY *      CLOUDY    25  21  86 E3        30.14R
YORK           LGT SNOW  25 N/A N/A SE3       30.18R
$$

NEZ011>018-030>034-042>045-181300-
NORTHEAST NEBRASKA

CITY           SKY/WX    TMP DP  RH WIND       PRES   REMARKS
NORFOLK        LGT SNOW  24  21  88 SE5       30.18S FOG     WCI  18
6HR MIN TEMP:  24; 6HR MAX TEMP:  25; 6HR PCP:  0.01;

ALBION         CLOUDY    23  20  88 SE3       30.17R
BLAIR          FLURRIES  27  23  85 E5        30.20S WCI  21
COLUMBUS *     CLOUDY    25  18  74 SE3       30.20S
FREMONT        CLOUDY    28  23  83 CALM      30.21S
TEKAMAH        CLOUDY    26  21  81 E3        30.23S
6HR MIN TEMP:  25; 6HR MAX TEMP:  27;

WAYNE          CLOUDY    25  22  86 SE6       30.20S WCI  18
$$

NEZ050>053-065>068-078-088>093-181300-
SOUTHEAST NEBRASKA

CITY           SKY/WX    TMP DP  RH WIND       PRES   REMARKS
LINCOLN        LGT SNOW  26  24  92 E3        30.22S FOG
6HR MIN TEMP:  26; 6HR MAX TEMP:  27; 6HR PCP:  0.04;

OMAHA EPPLEY   FLURRIES  27  20  75 SE6       30.24S WCI  20
6HR MIN TEMP:  27; 6HR MAX TEMP:  28; 6HR PCP: TRACE;

BEATRICE       LGT SNOW  26  25  96 CALM      30.19S
FALLS CITY     LGT SNOW  27  25  92 E5        30.22R FOG     WCI  22
6HR MIN TEMP:  27; 6HR MAX TEMP:  29; 6HR PCP: TRACE;

NEBRASKA CITY  LGT SNOW  27  27 100 E6        30.21R WCI  20
PLATTSMOUTH    LGT SNOW  27  22  80 E6        30.21S WCI  21
$$

NEZ044-045-051>053-067-181300-
OMAHA AREA

CITY           SKY/WX    TMP DP  RH WIND       PRES   REMARKS
OMAHA EPPLEY   FLURRIES  27  20  75 SE6       30.24S WCI  20
6HR MIN TEMP:  27; 6HR MAX TEMP:  28; 6HR PCP: TRACE;

BLAIR          FLURRIES  27  23  85 E5        30.20S WCI  21
FREMONT        CLOUDY    28  23  83 CALM      30.21S
MILLARD        FLURRIES  28  21  74 SE3       30.22S
OFFUTT AFB     FLURRIES  27  21  77 E5        30.22S WCI  22
PLATTSMOUTH    LGT SNOW  27  22  80 E6        30.21S WCI  21
WAHOO          FLURRIES  28  22  80 SE7       30.21S WCI  20
$$


USA.gov is the U.S. government's official web portal to all federal, state and local government web resources and services.